World > North America > United States > Texas > Vaughan

Hourly Vaughan, TX Regional Weather

Feedback E-mail the Weather

Quick WX

Vaughan, TX Weather Maps

°F °C°F °C
Vaughan Weather Map
UTC Time: 8/15/2022, 04:47
Your Time:

Vaughan, TX Regional Weather

Expires:202208150500;;120151
ASUS44 KFWD 150415
RWRTX 
NORTH TEXAS HOURLY WEATHER ROUNDUP
NATIONAL WEATHER SERVICE FORT WORTH TX
1100 PM CDT SUN AUG 14 2022

NOTE: "FAIR" INDICATES FEW OR NO CLOUDS BELOW 12,000 FEET WITH NO
SIGNIFICANT WEATHER AND/OR OBSTRUCTIONS TO VISIBILITY.


TXZ143>147-156>162-174-175-150500-
CENTRAL TEXAS
  
CITY           SKY/WX    TMP DP  RH WIND       PRES   REMARKS
WACO           FAIR      87  69  54 S12       29.94R HX  91           
WACO-TSTC      CLEAR     86  66  51 S6        29.94R                  
WACO-MCGREGOR  FAIR      85  68  56 S9        29.96R                  
HILLSBORO      FAIR      87  68  53 SE7       29.94R HX  90           
MEXIA          FAIR      83  68  60 S9        29.95R                  
HEARNE         FAIR      83  68  59 S6        29.96R                  
CAMERON        FAIR      82  68  61 S8        29.95R                  
TEMPLE         FAIR      84  68  58 S12       29.96R                  
KILLEEN        FAIR      82  66  57 SE15      29.94R                  
KILLEEN-SKYLRK FAIR      83  68  60 S13       29.97R                  
FORT HOOD      FAIR      83  67  58 S12       29.96R                  
GATESVILLE     FAIR      84  66  54 MISG      29.98R                  
HAMILTON       FAIR      83  66  56 S10       29.98R                  
LAMPASAS       FAIR      82  66  58 S6          N/A                   
$$


SKY/WX - Weather  TMP - Temperature  DP - Dew Point  RH - Humidity
WIND - Wind Direction/Speed PRES - Barometric Pressure VSB - Visibility
WCI - Wind Chill Index E13G22 Wind - East Wind 13 mph/Gusts of 22 mph

Trending Headlines

Vaughan Radar Loop



Vaughan Quick Facts


National Two Day Weather Forecast


E-mail the Vaughan Weather Forecast

Voice your opinion or tell us about page issues...